Time,TemperatureF,DewpointF,PressureIn,WindDirection,WindDirectionDegrees,WindSpeedMPH,WindSpeedGustMPH,Humidity,HourlyPrecipIn,Conditions,Clouds,dailyrainin,SoftwareType,DateUTC
2013-02-27 00:02:00,36.5,33.6,29.90,NE,43,13.0,13.0,89,0.00,,---,0.01,VWS V14.00,2013-02-27 05:02:00,
2013-02-27 00:07:00,36.5,33.6,29.89,East,90,4.0,17.0,89,0.04,,---,0.01,VWS V14.00,2013-02-27 05:07:00,
2013-02-27 00:12:00,36.5,33.6,29.90,ENE,71,2.0,17.0,89,0.32,,---,0.03,VWS V14.00,2013-02-27 05:12:00,
2013-02-27 00:17:00,36.6,33.7,29.91,East,89,4.0,18.0,89,0.17,,---,0.04,VWS V14.00,2013-02-27 05:17:00,
2013-02-27 00:22:00,36.6,33.7,29.92,NNE,30,1.0,18.0,89,0.10,,---,0.05,VWS V14.00,2013-02-27 05:22:00,
2013-02-27 00:27:00,36.7,33.8,29.91,East,81,13.0,19.0,89,0.09,,---,0.06,VWS V14.00,2013-02-27 05:27:00,
2013-02-27 00:32:00,36.7,33.8,29.91,ESE,119,13.0,19.0,89,0.11,,---,0.07,VWS V14.00,2013-02-27 05:32:00,
2013-02-27 00:37:00,36.8,33.9,29.92,East,86,7.0,19.0,89,0.20,,---,0.08,VWS V14.00,2013-02-27 05:37:00,
2013-02-27 00:42:00,36.8,33.9,29.92,East,85,0.0,19.0,89,0.13,,---,0.09,VWS V14.00,2013-02-27 05:42:00,
2013-02-27 00:47:00,36.8,33.9,29.92,ESE,120,16.0,19.0,89,0.24,,---,0.11,VWS V14.00,2013-02-27 05:47:00,
2013-02-27 00:52:00,36.9,34.0,29.92,ESE,103,4.0,19.0,89,0.12,,---,0.12,VWS V14.00,2013-02-27 05:52:00,
2013-02-27 00:57:00,36.9,34.0,29.91,ESE,107,6.0,15.0,89,0.15,,---,0.13,VWS V14.00,2013-02-27 05:57:00,
2013-02-27 01:02:00,36.9,34.2,29.90,ESE,120,12.0,19.0,90,0.11,,---,0.14,VWS V14.00,2013-02-27 06:02:00,
2013-02-27 01:07:00,37.0,34.3,29.90,ENE,59,10.0,21.0,90,0.19,,---,0.17,VWS V14.00,2013-02-27 06:07:00,
2013-02-27 01:12:00,37.0,34.3,29.90,ESE,121,8.0,21.0,90,0.34,,---,0.19,VWS V14.00,2013-02-27 06:12:00,
2013-02-27 01:17:00,37.0,34.3,29.90,ESE,111,9.0,21.0,90,0.21,,---,0.21,VWS V14.00,2013-02-27 06:17:00,
2013-02-27 01:22:00,37.0,34.3,29.89,NE,34,13.0,21.0,90,0.12,,---,0.21,VWS V14.00,2013-02-27 06:22:00,
2013-02-27 01:27:00,37.1,34.4,29.89,East,88,7.0,13.0,90,0.09,,---,0.22,VWS V14.00,2013-02-27 06:27:00,
2013-02-27 01:32:00,37.1,34.4,29.87,ENE,67,4.0,13.0,90,0.08,,---,0.22,VWS V14.00,2013-02-27 06:32:00,
2013-02-27 01:37:00,37.2,34.5,29.88,ENE,59,7.0,21.0,90,0.05,,---,0.22,VWS V14.00,2013-02-27 06:37:00,
2013-02-27 01:42:00,37.3,34.6,29.88,NE,55,12.0,21.0,90,0.04,,---,0.23,VWS V14.00,2013-02-27 06:42:00,
2013-02-27 01:47:00,37.4,34.7,29.87,ENE,74,15.0,21.0,90,0.04,,---,0.23,VWS V14.00,2013-02-27 06:47:00,
2013-02-27 01:52:00,37.4,34.7,29.87,ESE,123,5.0,21.0,90,0.04,,---,0.23,VWS V14.00,2013-02-27 06:52:00,
2013-02-27 01:57:00,37.4,34.7,29.86,ESE,105,5.0,18.0,90,0.00,,---,0.23,VWS V14.00,2013-02-27 06:57:00,
2013-02-27 02:03:00,37.5,34.8,29.85,East,101,6.0,18.0,90,0.00,,---,0.24,VWS V14.00,2013-02-27 07:03:00,
2013-02-27 02:08:00,37.5,34.8,29.85,ESE,105,19.0,19.0,90,0.00,,---,0.24,VWS V14.00,2013-02-27 07:08:00,
2013-02-27 02:13:00,37.6,34.9,29.85,East,82,5.0,19.0,90,0.06,,---,0.25,VWS V14.00,2013-02-27 07:13:00,
2013-02-27 02:18:00,37.6,34.9,29.85,ENE,60,3.0,19.0,90,0.08,,---,0.26,VWS V14.00,2013-02-27 07:18:00,
2013-02-27 02:23:00,37.6,34.9,29.84,ENE,71,1.0,19.0,90,0.15,,---,0.27,VWS V14.00,2013-02-27 07:23:00,
2013-02-27 02:28:00,37.7,35.0,29.84,ESE,115,11.0,11.0,90,0.09,,---,0.28,VWS V14.00,2013-02-27 07:28:00,
2013-02-27 02:33:00,37.7,35.0,29.83,East,98,7.0,15.0,90,0.10,,---,0.29,VWS V14.00,2013-02-27 07:33:00,
2013-02-27 02:38:00,37.7,35.0,29.82,ESE,121,1.0,17.0,90,0.10,,---,0.29,VWS V14.00,2013-02-27 07:38:00,
2013-02-27 02:43:00,37.7,35.0,29.81,ENE,67,2.0,17.0,90,0.06,,---,0.30,VWS V14.00,2013-02-27 07:43:00,
2013-02-27 02:48:00,37.7,35.0,29.81,NE,49,7.0,17.0,90,0.06,,---,0.30,VWS V14.00,2013-02-27 07:48:00,
2013-02-27 02:53:00,37.7,35.0,29.81,ENE,69,7.0,17.0,90,0.08,,---,0.31,VWS V14.00,2013-02-27 07:53:00,
2013-02-27 02:58:00,37.7,35.0,29.80,NE,53,12.0,12.0,90,0.10,,---,0.32,VWS V14.00,2013-02-27 07:58:00,
2013-02-27 03:03:00,37.7,35.3,29.80,ENE,57,11.0,12.0,91,0.13,,---,0.33,VWS V14.00,2013-02-27 08:03:00,
2013-02-27 03:08:00,37.8,35.4,29.79,ENE,75,3.0,13.0,91,0.13,,---,0.34,VWS V14.00,2013-02-27 08:08:00,
2013-02-27 03:13:00,37.8,35.4,29.79,East,84,5.0,13.0,91,0.06,,---,0.35,VWS V14.00,2013-02-27 08:13:00,
2013-02-27 03:18:00,37.9,35.5,29.78,NE,47,4.0,13.0,91,0.06,,---,0.35,VWS V14.00,2013-02-27 08:18:00,
2013-02-27 03:23:00,38.0,35.6,29.79,ENE,70,1.0,13.0,91,0.07,,---,0.36,VWS V14.00,2013-02-27 08:23:00,
2013-02-27 03:28:00,38.0,35.6,29.78,NE,51,6.0,15.0,91,0.10,,---,0.37,VWS V14.00,2013-02-27 08:28:00,
2013-02-27 03:33:00,38.2,35.8,29.78,East,97,4.0,15.0,91,0.10,,---,0.37,VWS V14.00,2013-02-27 08:33:00,
2013-02-27 03:38:00,38.3,35.9,29.78,ENE,59,5.0,15.0,91,0.06,,---,0.38,VWS V14.00,2013-02-27 08:38:00,
2013-02-27 03:43:00,38.4,36.0,29.77,East,90,13.0,15.0,91,0.12,,---,0.39,VWS V14.00,2013-02-27 08:43:00,
2013-02-27 03:48:00,38.6,36.2,29.76,ESE,102,5.0,15.0,91,0.12,,---,0.40,VWS V14.00,2013-02-27 08:48:00,
2013-02-27 03:53:00,38.6,36.2,29.76,ESE,116,4.0,16.0,91,0.13,,---,0.41,VWS V14.00,2013-02-27 08:53:00,
2013-02-27 03:58:00,38.7,36.3,29.76,East,92,5.0,15.0,91,0.11,,---,0.42,VWS V14.00,2013-02-27 08:58:00,
2013-02-27 04:03:00,38.8,36.4,29.76,SE,128,6.0,15.0,91,0.08,,---,0.43,VWS V14.00,2013-02-27 09:03:00,
2013-02-27 04:08:00,38.9,36.5,29.76,NE,44,5.0,15.0,91,0.12,,---,0.44,VWS V14.00,2013-02-27 09:08:00,
2013-02-27 04:13:00,39.1,37.0,29.75,ESE,123,1.0,15.0,92,0.12,,---,0.45,VWS V14.00,2013-02-27 09:13:00,
2013-02-27 04:18:00,39.2,36.8,29.75,SE,138,4.0,15.0,91,0.09,,---,0.45,VWS V14.00,2013-02-27 09:18:00,
2013-02-27 04:23:00,39.2,36.8,29.75,NE,49,4.0,15.0,91,0.08,,---,0.46,VWS V14.00,2013-02-27 09:23:00,
2013-02-27 04:28:00,39.3,36.9,29.75,ENE,78,6.0,10.0,91,0.08,,---,0.47,VWS V14.00,2013-02-27 09:28:00,
2013-02-27 04:33:00,39.4,37.3,29.75,East,86,0.0,10.0,92,0.08,,---,0.47,VWS V14.00,2013-02-27 09:33:00,
2013-02-27 04:38:00,39.5,37.4,29.75,East,97,2.0,10.0,92,0.05,,---,0.47,VWS V14.00,2013-02-27 09:38:00,
2013-02-27 04:43:00,39.6,37.5,29.74,ENE,78,3.0,10.0,92,0.05,,---,0.48,VWS V14.00,2013-02-27 09:43:00,
2013-02-27 04:48:00,39.7,37.6,29.73,NE,54,0.0,10.0,92,0.08,,---,0.49,VWS V14.00,2013-02-27 09:48:00,
2013-02-27 04:53:00,39.8,37.7,29.73,ENE,77,5.0,13.0,92,0.08,,---,0.49,VWS V14.00,2013-02-27 09:53:00,
2013-02-27 04:58:00,39.9,37.8,29.73,ENE,66,2.0,13.0,92,0.06,,---,0.50,VWS V14.00,2013-02-27 09:58:00,
2013-02-27 05:03:00,40.0,37.9,29.72,ESE,117,5.0,13.0,92,0.06,,---,0.50,VWS V14.00,2013-02-27 10:03:00,
2013-02-27 05:08:00,40.1,38.0,29.72,East,101,1.0,15.0,92,0.06,,---,0.51,VWS V14.00,2013-02-27 10:08:00,
2013-02-27 05:13:00,40.2,38.1,29.71,East,91,2.0,15.0,92,0.06,,---,0.51,VWS V14.00,2013-02-27 10:13:00,
2013-02-27 05:18:00,40.4,38.3,29.71,NE,53,6.0,15.0,92,0.05,,---,0.52,VWS V14.00,2013-02-27 10:18:00,
2013-02-27 05:23:00,40.6,38.5,29.71,ENE,75,2.0,15.0,92,0.05,,---,0.53,VWS V14.00,2013-02-27 10:23:00,
2013-02-27 05:28:00,40.7,38.6,29.71,ENE,66,1.0,5.0,92,0.13,,---,0.54,VWS V14.00,2013-02-27 10:28:00,
2013-02-27 05:33:00,40.9,38.8,29.70,ENE,71,1.0,9.0,92,0.19,,---,0.56,VWS V14.00,2013-02-27 10:33:00,
2013-02-27 05:38:00,41.0,40.5,29.70,East,86,2.0,9.0,98,0.18,,---,0.57,VWS V14.00,2013-02-27 10:38:00,
2013-02-27 05:43:00,41.2,39.1,29.69,East,82,4.0,15.0,92,0.31,,---,0.59,VWS V14.00,2013-02-27 10:43:00,
2013-02-27 05:48:00,41.4,39.2,29.69,ESE,119,7.0,15.0,92,0.18,,---,0.61,VWS V14.00,2013-02-27 10:48:00,
2013-02-27 05:53:00,41.5,39.3,29.68,SE,136,7.0,15.0,92,0.12,,---,0.62,VWS V14.00,2013-02-27 10:53:00,
2013-02-27 05:58:00,41.7,39.5,29.68,NE,55,7.0,18.0,92,0.12,,---,0.62,VWS V14.00,2013-02-27 10:58:00,
2013-02-27 06:03:00,41.9,39.8,29.68,ESE,118,9.0,18.0,92,0.09,,---,0.63,VWS V14.00,2013-02-27 11:03:00,
2013-02-27 06:08:00,42.3,40.2,29.67,ENE,65,11.0,21.0,92,0.07,,---,0.63,VWS V14.00,2013-02-27 11:08:00,
2013-02-27 06:13:00,42.6,40.4,29.67,ENE,72,8.0,21.0,92,0.05,,---,0.64,VWS V14.00,2013-02-27 11:13:00,
2013-02-27 06:18:00,42.8,40.6,29.67,ENE,59,5.0,21.0,92,0.04,,---,0.64,VWS V14.00,2013-02-27 11:18:00,
2013-02-27 06:23:00,43.0,40.8,29.66,East,85,10.0,21.0,92,0.04,,---,0.64,VWS V14.00,2013-02-27 11:23:00,
2013-02-27 06:29:00,43.2,40.8,29.65,ESE,109,4.0,16.0,91,0.04,,---,0.64,VWS V14.00,2013-02-27 11:29:00,
2013-02-27 06:34:00,43.3,40.8,29.65,East,90,7.0,16.0,91,0.00,,---,0.65,VWS V14.00,2013-02-27 11:34:00,
2013-02-27 06:39:00,43.4,41.0,29.65,ESE,113,7.0,16.0,91,0.00,,---,0.65,VWS V14.00,2013-02-27 11:39:00,
2013-02-27 06:44:00,43.6,41.2,29.65,SE,140,14.0,18.0,91,0.00,,---,0.65,VWS V14.00,2013-02-27 11:44:00,
2013-02-27 06:49:00,43.7,41.2,29.65,ENE,73,14.0,19.0,91,0.00,,---,0.65,VWS V14.00,2013-02-27 11:49:00,
2013-02-27 06:54:00,43.8,41.3,29.65,ESE,115,6.0,19.0,91,0.00,,---,0.66,VWS V14.00,2013-02-27 11:54:00,
2013-02-27 06:59:00,43.9,41.5,29.65,ESE,111,8.0,21.0,91,0.00,,---,0.66,VWS V14.00,2013-02-27 11:59:00,
2013-02-27 07:04:00,44.0,41.5,29.65,ESE,120,14.0,21.0,91,0.06,,---,0.67,VWS V14.00,2013-02-27 12:04:00,
2013-02-27 07:09:00,44.0,41.5,29.64,NE,56,4.0,21.0,91,0.17,,---,0.68,VWS V14.00,2013-02-27 12:09:00,
2013-02-27 07:14:00,44.1,41.7,29.64,East,80,7.0,25.0,91,0.12,,---,0.69,VWS V14.00,2013-02-27 12:14:00,
2013-02-27 07:19:00,44.2,41.7,29.63,NE,36,11.0,25.0,91,0.10,,---,0.70,VWS V14.00,2013-02-27 12:19:00,
2013-02-27 07:24:00,44.2,41.7,29.62,ENE,70,13.0,25.0,91,0.11,,---,0.71,VWS V14.00,2013-02-27 12:24:00,
2013-02-27 07:29:00,44.3,41.8,29.62,East,96,13.0,18.0,91,0.07,,---,0.71,VWS V14.00,2013-02-27 12:29:00,
2013-02-27 07:34:00,44.5,42.0,29.62,NE,53,2.0,22.0,91,0.05,,---,0.72,VWS V14.00,2013-02-27 12:34:00,
2013-02-27 07:39:00,44.6,42.1,29.61,East,100,12.0,22.0,91,0.05,,---,0.72,VWS V14.00,2013-02-27 12:39:00,
2013-02-27 07:44:00,44.7,42.2,29.61,ESE,104,21.0,22.0,91,0.05,,---,0.72,VWS V14.00,2013-02-27 12:44:00,
2013-02-27 07:49:00,44.9,42.4,29.61,NE,51,6.0,25.0,91,0.05,,---,0.73,VWS V14.00,2013-02-27 12:49:00,
2013-02-27 07:54:00,45.1,42.6,29.60,ESE,119,22.0,25.0,91,0.05,,---,0.73,VWS V14.00,2013-02-27 12:54:00,
2013-02-27 07:59:00,45.2,42.7,29.61,ESE,105,15.0,22.0,91,0.04,,---,0.73,VWS V14.00,2013-02-27 12:59:00,
2013-02-27 08:04:00,45.3,42.8,29.60,SE,143,2.0,22.0,91,0.04,,---,0.74,VWS V14.00,2013-02-27 13:04:00,
2013-02-27 08:09:00,45.4,42.9,29.60,ESE,115,9.0,22.0,91,0.04,,---,0.74,VWS V14.00,2013-02-27 13:09:00,
2013-02-27 08:14:00,45.5,43.0,29.60,ESE,123,27.0,28.0,91,0.04,,---,0.74,VWS V14.00,2013-02-27 13:14:00,
2013-02-27 08:19:00,45.7,42.9,29.60,ENE,76,17.0,28.0,90,0.00,,---,0.75,VWS V14.00,2013-02-27 13:19:00,
2013-02-27 08:24:00,45.8,43.0,29.60,NNE,32,18.0,28.0,90,0.00,,---,0.75,VWS V14.00,2013-02-27 13:24:00,
2013-02-27 08:29:00,45.9,42.8,29.59,SE,140,25.0,30.0,89,0.00,,---,0.75,VWS V14.00,2013-02-27 13:29:00,
2013-02-27 08:34:00,45.9,42.8,29.59,East,89,14.0,30.0,89,0.04,,---,0.76,VWS V14.00,2013-02-27 13:34:00,
2013-02-27 08:39:00,45.9,42.8,29.59,ENE,57,13.0,40.0,89,0.04,,---,0.76,VWS V14.00,2013-02-27 13:39:00,
2013-02-27 08:44:00,45.9,42.8,29.59,NNE,26,9.0,40.0,89,0.04,,---,0.76,VWS V14.00,2013-02-27 13:44:00,
2013-02-27 08:49:00,45.9,42.8,29.58,ESE,121,16.0,40.0,89,0.04,,---,0.77,VWS V14.00,2013-02-27 13:49:00,
2013-02-27 08:54:00,45.9,42.8,29.58,East,91,18.0,40.0,89,0.04,,---,0.77,VWS V14.00,2013-02-27 13:54:00,
2013-02-27 08:59:00,46.0,43.0,29.58,East,82,8.0,31.0,89,0.04,,---,0.77,VWS V14.00,2013-02-27 13:59:00,
2013-02-27 09:04:00,46.0,43.0,29.58,ESE,122,30.0,31.0,89,0.04,,---,0.77,VWS V14.00,2013-02-27 14:04:00,
2013-02-27 09:09:00,46.0,43.0,29.58,East,86,21.0,31.0,89,0.04,,---,0.78,VWS V14.00,2013-02-27 14:09:00,
2013-02-27 09:14:00,46.1,43.0,29.58,SE,142,15.0,31.0,89,0.04,,---,0.78,VWS V14.00,2013-02-27 14:14:00,
2013-02-27 09:19:00,46.1,43.0,29.58,East,96,16.0,31.0,89,0.04,,---,0.78,VWS V14.00,2013-02-27 14:19:00,
2013-02-27 09:24:00,46.1,43.0,29.58,ESE,123,15.0,31.0,89,0.00,,---,0.78,VWS V14.00,2013-02-27 14:24:00,
2013-02-27 09:29:00,46.1,43.0,29.57,SSE,147,14.0,18.0,89,0.00,,---,0.79,VWS V14.00,2013-02-27 14:29:00,
2013-02-27 09:34:00,46.1,43.0,29.56,SE,146,6.0,18.0,89,0.00,,---,0.79,VWS V14.00,2013-02-27 14:34:00,
2013-02-27 09:39:00,46.1,43.0,29.56,East,97,11.0,26.0,89,0.00,,---,0.79,VWS V14.00,2013-02-27 14:39:00,
2013-02-27 09:44:00,46.1,43.0,29.56,ESE,115,20.0,26.0,89,0.00,,---,0.79,VWS V14.00,2013-02-27 14:44:00,
2013-02-27 09:49:00,46.0,43.0,29.56,ESE,118,6.0,32.0,89,0.00,,---,0.79,VWS V14.00,2013-02-27 14:49:00,
2013-02-27 09:54:00,45.9,42.8,29.56,SE,144,21.0,32.0,89,0.00,,---,0.79,VWS V14.00,2013-02-27 14:54:00,
2013-02-27 09:59:00,45.9,42.8,29.57,ESE,103,28.0,28.0,89,0.00,,---,0.80,VWS V14.00,2013-02-27 14:59:00,
2013-02-27 10:04:00,45.9,42.8,29.56,SE,125,9.0,29.0,89,0.00,,---,0.80,VWS V14.00,2013-02-27 15:04:00,
2013-02-27 10:09:00,45.8,42.8,29.56,ESE,116,9.0,29.0,89,0.00,,---,0.80,VWS V14.00,2013-02-27 15:09:00,
2013-02-27 10:14:00,45.8,42.8,29.55,ESE,108,12.0,29.0,89,0.00,,---,0.80,VWS V14.00,2013-02-27 15:14:00,
2013-02-27 10:19:00,45.8,42.8,29.56,East,98,13.0,29.0,89,0.00,,---,0.80,VWS V14.00,2013-02-27 15:19:00,
2013-02-27 10:24:00,45.7,42.7,29.56,ESE,109,6.0,29.0,89,0.00,,---,0.80,VWS V14.00,2013-02-27 15:24:00,
2013-02-27 10:29:00,45.6,42.5,29.55,ESE,115,12.0,22.0,89,0.00,,---,0.80,VWS V14.00,2013-02-27 15:29:00,
2013-02-27 10:34:00,45.6,42.5,29.55,East,96,9.0,23.0,89,0.00,,---,0.80,VWS V14.00,2013-02-27 15:34:00,
2013-02-27 10:39:00,45.5,42.5,29.54,East,85,11.0,35.0,89,0.00,,---,0.80,VWS V14.00,2013-02-27 15:39:00,
2013-02-27 10:44:00,45.5,42.5,29.54,NE,35,11.0,35.0,89,0.00,,---,0.80,VWS V14.00,2013-02-27 15:44:00,
2013-02-27 10:49:00,45.5,42.5,29.54,East,96,9.0,35.0,89,0.00,,---,0.80,VWS V14.00,2013-02-27 15:49:00,
2013-02-27 10:54:00,45.4,42.3,29.54,SE,140,11.0,35.0,89,0.00,,---,0.80,VWS V14.00,2013-02-27 15:54:00,
2013-02-27 10:59:00,45.4,42.3,29.54,SE,128,15.0,20.0,89,0.00,,---,0.80,VWS V14.00,2013-02-27 15:59:00,
2013-02-27 11:04:00,45.4,42.3,29.54,SE,125,13.0,26.0,89,0.00,,---,0.80,VWS V14.00,2013-02-27 16:04:00,
2013-02-27 11:09:00,45.4,42.3,29.55,ESE,113,12.0,26.0,89,0.00,,---,0.81,VWS V14.00,2013-02-27 16:09:00,
2013-02-27 11:14:00,45.4,42.3,29.55,ESE,113,7.0,26.0,89,0.00,,---,0.81,VWS V14.00,2013-02-27 16:14:00,
2013-02-27 11:19:00,45.4,42.3,29.55,ESE,103,8.0,26.0,89,0.00,,---,0.81,VWS V14.00,2013-02-27 16:19:00,
2013-02-27 11:24:00,45.4,42.6,29.54,East,94,13.0,26.0,90,0.00,,---,0.81,VWS V14.00,2013-02-27 16:24:00,
2013-02-27 11:29:00,45.3,42.5,29.54,East,97,5.0,16.0,90,0.00,,---,0.81,VWS V14.00,2013-02-27 16:29:00,
2013-02-27 11:34:00,45.3,42.5,29.54,East,101,6.0,19.0,90,0.00,,---,0.81,VWS V14.00,2013-02-27 16:34:00,
2013-02-27 11:39:00,45.3,42.5,29.53,ESE,123,5.0,19.0,90,0.00,,---,0.81,VWS V14.00,2013-02-27 16:39:00,
2013-02-27 11:44:00,45.4,42.6,29.52,NE,44,7.0,19.0,90,0.00,,---,0.82,VWS V14.00,2013-02-27 16:44:00,
2013-02-27 11:49:00,45.3,42.5,29.53,ENE,78,10.0,24.0,90,0.00,,---,0.82,VWS V14.00,2013-02-27 16:49:00,
2013-02-27 11:54:00,45.4,42.9,29.52,ENE,78,10.0,24.0,91,0.00,,---,0.82,VWS V14.00,2013-02-27 16:54:00,
2013-02-27 11:59:00,45.3,42.8,29.52,ESE,103,6.0,12.0,91,0.00,,---,0.82,VWS V14.00,2013-02-27 16:59:00,
2013-02-27 12:04:00,45.4,42.9,29.52,SE,136,9.0,12.0,91,0.00,,---,0.82,VWS V14.00,2013-02-27 17:04:00,
2013-02-27 12:09:00,45.4,42.9,29.52,East,84,7.0,15.0,91,0.00,,---,0.82,VWS V14.00,2013-02-27 17:09:00,
2013-02-27 12:15:00,45.4,42.9,29.52,East,100,2.0,15.0,91,0.00,,---,0.82,VWS V14.00,2013-02-27 17:15:00,
2013-02-27 12:20:00,45.5,43.0,29.52,East,90,6.0,15.0,91,0.00,,---,0.82,VWS V14.00,2013-02-27 17:20:00,
2013-02-27 12:25:00,45.5,43.0,29.52,SE,127,9.0,15.0,91,0.00,,---,0.82,VWS V14.00,2013-02-27 17:25:00,
2013-02-27 12:30:00,45.5,43.0,29.52,ENE,76,11.0,14.0,91,0.00,,---,0.82,VWS V14.00,2013-02-27 17:30:00,
2013-02-27 12:35:00,45.4,42.6,29.51,East,98,5.0,16.0,90,0.00,,---,0.82,VWS V14.00,2013-02-27 17:35:00,
2013-02-27 12:40:00,45.4,42.6,29.50,ENE,67,10.0,16.0,90,0.00,,---,0.82,VWS V14.00,2013-02-27 17:40:00,
2013-02-27 12:45:00,45.4,42.6,29.50,ESE,119,12.0,16.0,90,0.00,,---,0.82,VWS V14.00,2013-02-27 17:45:00,
2013-02-27 12:50:00,45.3,42.5,29.50,East,99,8.0,18.0,90,0.00,,---,0.82,VWS V14.00,2013-02-27 17:50:00,
2013-02-27 12:55:00,45.3,42.5,29.50,East,96,5.0,18.0,90,0.00,,---,0.82,VWS V14.00,2013-02-27 17:55:00,
2013-02-27 13:00:00,45.2,42.5,29.50,East,92,7.0,11.0,90,0.00,,---,0.82,VWS V14.00,2013-02-27 18:00:00,
2013-02-27 13:05:00,45.1,42.3,29.51,ESE,111,5.0,11.0,90,0.00,,---,0.82,VWS V14.00,2013-02-27 18:05:00,
2013-02-27 13:10:00,45.1,42.3,29.51,East,85,6.0,12.0,90,0.00,,---,0.82,VWS V14.00,2013-02-27 18:10:00,
2013-02-27 13:15:00,45.1,42.3,29.51,SE,133,0.0,12.0,90,0.00,,---,0.82,VWS V14.00,2013-02-27 18:15:00,
2013-02-27 13:20:00,45.0,42.2,29.51,East,96,7.0,12.0,90,0.00,,---,0.82,VWS V14.00,2013-02-27 18:20:00,
2013-02-27 13:25:00,45.0,42.2,29.52,East,88,4.0,12.0,90,0.00,,---,0.82,VWS V14.00,2013-02-27 18:25:00,
2013-02-27 13:30:00,44.9,42.2,29.51,SE,133,2.0,3.0,90,0.00,,---,0.82,VWS V14.00,2013-02-27 18:30:00,
2013-02-27 13:35:00,44.9,42.4,29.51,NE,53,1.0,5.0,91,0.00,,---,0.82,VWS V14.00,2013-02-27 18:35:00,
2013-02-27 13:40:00,44.9,42.4,29.50,NE,51,3.0,7.0,91,0.00,,---,0.82,VWS V14.00,2013-02-27 18:40:00,
2013-02-27 13:45:00,45.0,42.5,29.50,ESE,117,5.0,7.0,91,0.00,,---,0.82,VWS V14.00,2013-02-27 18:45:00,
2013-02-27 13:50:00,45.0,42.5,29.50,SSE,150,5.0,7.0,91,0.00,,---,0.82,VWS V14.00,2013-02-27 18:50:00,
2013-02-27 13:55:00,45.1,42.6,29.50,SE,124,5.0,9.0,91,0.00,,---,0.82,VWS V14.00,2013-02-27 18:55:00,
2013-02-27 14:00:00,45.1,42.6,29.51,ESE,123,1.0,2.0,91,0.00,,---,0.82,VWS V14.00,2013-02-27 19:00:00,
2013-02-27 14:05:00,45.1,42.6,29.51,ESE,109,0.0,4.0,91,0.00,,---,0.82,VWS V14.00,2013-02-27 19:05:00,
2013-02-27 14:10:00,45.2,43.0,29.51,ESE,109,0.0,4.0,92,0.00,,---,0.82,VWS V14.00,2013-02-27 19:10:00,
2013-02-27 14:15:00,45.2,43.0,29.51,SE,141,0.0,4.0,92,0.00,,---,0.82,VWS V14.00,2013-02-27 19:15:00,
2013-02-27 14:20:00,45.3,43.1,29.52,SE,141,0.0,4.0,92,0.00,,---,0.82,VWS V14.00,2013-02-27 19:20:00,
2013-02-27 14:25:00,45.2,43.0,29.52,SE,141,0.0,4.0,92,0.00,,---,0.82,VWS V14.00,2013-02-27 19:25:00,
2013-02-27 14:30:00,45.2,43.0,29.52,SE,141,0.0,0.0,92,0.00,,---,0.82,VWS V14.00,2013-02-27 19:30:00,
2013-02-27 14:35:00,45.3,43.1,29.52,SE,141,0.0,0.0,92,0.00,,---,0.82,VWS V14.00,2013-02-27 19:35:00,
2013-02-27 14:40:00,45.3,43.1,29.52,SE,141,0.0,0.0,92,0.00,,---,0.82,VWS V14.00,2013-02-27 19:40:00,
2013-02-27 14:45:00,45.4,43.2,29.52,SE,141,0.0,0.0,92,0.00,,---,0.83,VWS V14.00,2013-02-27 19:45:00,
2013-02-27 14:50:00,45.5,43.3,29.52,SE,141,2.0,2.0,92,0.00,,---,0.83,VWS V14.00,2013-02-27 19:50:00,
2013-02-27 14:55:00,45.6,43.4,29.51,SE,137,2.0,4.0,92,0.00,,---,0.83,VWS V14.00,2013-02-27 19:55:00,
2013-02-27 15:00:00,45.6,43.4,29.52,SE,137,0.0,2.0,92,0.00,,---,0.83,VWS V14.00,2013-02-27 20:00:00,
2013-02-27 15:05:00,45.6,43.4,29.52,SE,137,0.0,2.0,92,0.00,,---,0.83,VWS V14.00,2013-02-27 20:05:00,
2013-02-27 15:10:00,45.7,43.5,29.52,SE,137,0.0,2.0,92,0.00,,---,0.83,VWS V14.00,2013-02-27 20:10:00,
2013-02-27 15:15:00,45.8,43.9,29.52,SE,137,0.0,2.0,93,0.00,,---,0.83,VWS V14.00,2013-02-27 20:15:00,
2013-02-27 15:20:00,45.8,43.6,29.52,SE,137,0.0,2.0,92,0.00,,---,0.83,VWS V14.00,2013-02-27 20:20:00,
2013-02-27 15:25:00,45.7,43.5,29.52,SE,137,0.0,2.0,92,0.00,,---,0.83,VWS V14.00,2013-02-27 20:25:00,
2013-02-27 15:30:00,45.7,43.5,29.53,SE,137,0.0,0.0,92,0.00,,---,0.83,VWS V14.00,2013-02-27 20:30:00,
2013-02-27 15:35:00,45.6,43.4,29.53,SE,137,0.0,0.0,92,0.00,,---,0.83,VWS V14.00,2013-02-27 20:35:00,
2013-02-27 15:40:00,45.6,43.4,29.53,SE,137,0.0,0.0,92,0.00,,---,0.83,VWS V14.00,2013-02-27 20:40:00,
2013-02-27 15:46:00,45.6,43.4,29.54,SE,137,0.0,0.0,92,0.00,,---,0.83,VWS V14.00,2013-02-27 20:46:00,
2013-02-27 15:51:00,45.6,43.4,29.54,SE,137,0.0,0.0,92,0.00,,---,0.83,VWS V14.00,2013-02-27 20:51:00,
2013-02-27 15:56:00,45.6,43.4,29.54,SE,137,0.0,0.0,92,0.00,,---,0.83,VWS V14.00,2013-02-27 20:56:00,
2013-02-27 16:01:00,45.7,43.5,29.54,SE,137,0.0,0.0,92,0.00,,---,0.83,VWS V14.00,2013-02-27 21:01:00,
2013-02-27 16:06:00,45.7,43.5,29.54,SE,137,0.0,0.0,92,0.00,,---,0.83,VWS V14.00,2013-02-27 21:06:00,
2013-02-27 16:11:00,45.7,43.5,29.54,SE,137,0.0,0.0,92,0.00,,---,0.83,VWS V14.00,2013-02-27 21:11:00,
2013-02-27 16:16:00,45.7,43.5,29.55,SE,137,0.0,0.0,92,0.00,,---,0.83,VWS V14.00,2013-02-27 21:16:00,
2013-02-27 16:21:00,45.6,43.4,29.55,SE,137,0.0,0.0,92,0.00,,---,0.83,VWS V14.00,2013-02-27 21:21:00,
2013-02-27 16:26:00,45.6,43.4,29.55,SE,137,0.0,0.0,92,0.00,,---,0.83,VWS V14.00,2013-02-27 21:26:00,
2013-02-27 16:31:00,45.6,43.7,29.55,SE,137,0.0,0.0,93,0.00,,---,0.83,VWS V14.00,2013-02-27 21:31:00,
2013-02-27 16:36:00,45.7,43.8,29.56,SE,137,0.0,0.0,93,0.00,,---,0.83,VWS V14.00,2013-02-27 21:36:00,
2013-02-27 16:41:00,45.8,43.9,29.55,SE,137,0.0,0.0,93,0.00,,---,0.83,VWS V14.00,2013-02-27 21:41:00,
2013-02-27 16:46:00,45.8,43.9,29.55,SE,137,0.0,0.0,93,0.00,,---,0.83,VWS V14.00,2013-02-27 21:46:00,
2013-02-27 16:51:00,45.8,43.6,29.56,SE,137,0.0,0.0,92,0.00,,---,0.83,VWS V14.00,2013-02-27 21:51:00,
2013-02-27 16:56:00,45.8,43.6,29.56,SE,137,0.0,0.0,92,0.00,,---,0.83,VWS V14.00,2013-02-27 21:56:00,
2013-02-27 17:01:00,45.8,43.6,29.56,SE,137,0.0,0.0,92,0.00,,---,0.83,VWS V14.00,2013-02-27 22:01:00,
2013-02-27 17:06:00,45.8,43.6,29.56,SE,137,0.0,0.0,92,0.00,,---,0.83,VWS V14.00,2013-02-27 22:06:00,
2013-02-27 17:11:00,45.8,43.9,29.56,SE,137,0.0,0.0,93,0.00,,---,0.83,VWS V14.00,2013-02-27 22:11:00,
2013-02-27 17:16:00,45.8,43.6,29.56,SE,137,0.0,0.0,92,0.00,,---,0.83,VWS V14.00,2013-02-27 22:16:00,
2013-02-27 17:21:00,45.8,43.9,29.56,SE,137,0.0,0.0,93,0.00,,---,0.83,VWS V14.00,2013-02-27 22:21:00,
2013-02-27 17:26:00,45.8,43.9,29.57,SE,137,0.0,0.0,93,0.00,,---,0.83,VWS V14.00,2013-02-27 22:26:00,
2013-02-27 17:31:00,45.8,43.6,29.57,SE,137,0.0,0.0,92,0.00,,---,0.83,VWS V14.00,2013-02-27 22:31:00,
2013-02-27 17:36:00,45.7,43.5,29.58,SE,137,1.0,4.0,92,0.00,,---,0.83,VWS V14.00,2013-02-27 22:36:00,
2013-02-27 17:41:00,45.6,43.4,29.58,SE,137,1.0,4.0,92,0.00,,---,0.83,VWS V14.00,2013-02-27 22:41:00,
2013-02-27 17:46:00,45.3,43.1,29.58,SW,234,2.0,4.0,92,0.00,,---,0.83,VWS V14.00,2013-02-27 22:46:00,
2013-02-27 17:51:00,45.1,42.6,29.58,WNW,302,2.0,5.0,91,0.00,,---,0.83,VWS V14.00,2013-02-27 22:51:00,
2013-02-27 17:56:00,45.0,42.2,29.58,WNW,302,2.0,2.0,90,0.00,,---,0.83,VWS V14.00,2013-02-27 22:56:00,
2013-02-27 18:01:00,44.9,41.9,29.59,NW,306,5.0,6.0,89,0.00,,---,0.83,VWS V14.00,2013-02-27 23:01:00,
2013-02-27 18:06:00,44.9,41.3,29.59,NW,307,8.0,9.0,87,0.00,,---,0.83,VWS V14.00,2013-02-27 23:06:00,
2013-02-27 18:11:00,45.0,40.8,29.59,WNW,293,2.0,9.0,85,0.00,,---,0.83,VWS V14.00,2013-02-27 23:11:00,
2013-02-27 18:16:00,44.9,40.4,29.60,WNW,293,5.0,9.0,84,0.00,,---,0.83,VWS V14.00,2013-02-27 23:16:00,
2013-02-27 18:21:00,44.8,39.7,29.60,NW,321,5.0,12.0,82,0.00,,---,0.83,VWS V14.00,2013-02-27 23:21:00,
2013-02-27 18:26:00,44.6,39.5,29.61,NW,321,4.0,4.0,82,0.00,,---,0.83,VWS V14.00,2013-02-27 23:26:00,
2013-02-27 18:31:00,44.3,39.2,29.61,NW,321,6.0,7.0,82,0.00,,---,0.83,VWS V14.00,2013-02-27 23:31:00,
2013-02-27 18:36:00,44.1,38.3,29.61,NW,309,6.0,8.0,80,0.00,,---,0.83,VWS V14.00,2013-02-27 23:36:00,
2013-02-27 18:41:00,44.0,38.2,29.61,NW,310,6.0,8.0,80,0.00,,---,0.83,VWS V14.00,2013-02-27 23:41:00,
2013-02-27 18:46:00,43.9,38.1,29.61,NW,312,1.0,8.0,80,0.00,,---,0.83,VWS V14.00,2013-02-27 23:46:00,
2013-02-27 18:51:00,43.6,37.5,29.61,NW,312,7.0,8.0,79,0.00,,---,0.83,VWS V14.00,2013-02-27 23:51:00,
2013-02-27 18:56:00,43.4,37.3,29.62,NW,321,5.0,5.0,79,0.00,,---,0.83,VWS V14.00,2013-02-27 23:56:00,
2013-02-27 19:01:00,43.4,37.0,29.62,NW,315,7.0,10.0,78,0.00,,---,0.83,VWS V14.00,2013-02-28 00:01:00,
2013-02-27 19:06:00,43.4,37.0,29.61,NW,309,6.0,10.0,78,0.00,,---,0.83,VWS V14.00,2013-02-28 00:06:00,
2013-02-27 19:11:00,43.3,36.9,29.62,NW,310,4.0,10.0,78,0.00,,---,0.83,VWS V14.00,2013-02-28 00:11:00,
2013-02-27 19:16:00,43.2,36.8,29.62,NW,310,0.0,10.0,78,0.00,,---,0.83,VWS V14.00,2013-02-28 00:16:00,
2013-02-27 19:21:00,43.0,36.9,29.63,NW,310,0.0,10.0,79,0.00,,---,0.83,VWS V14.00,2013-02-28 00:21:00,
2013-02-27 19:27:00,42.7,36.7,29.63,NW,310,0.0,0.0,79,0.00,,---,0.83,VWS V14.00,2013-02-28 00:27:00,
2013-02-27 19:32:00,42.3,36.6,29.63,NW,310,0.0,0.0,80,0.00,,---,0.83,VWS V14.00,2013-02-28 00:32:00,
2013-02-27 19:37:00,42.0,36.6,29.63,NW,310,0.0,0.0,81,0.00,,---,0.83,VWS V14.00,2013-02-28 00:37:00,
2013-02-27 19:42:00,41.6,36.5,29.63,NW,310,0.0,0.0,82,0.00,,---,0.83,VWS V14.00,2013-02-28 00:42:00,
2013-02-27 19:47:00,41.3,36.2,29.63,NW,310,0.0,0.0,82,0.00,,---,0.83,VWS V14.00,2013-02-28 00:47:00,
2013-02-27 19:52:00,40.9,35.8,29.63,NW,310,0.0,0.0,82,0.00,,---,0.83,VWS V14.00,2013-02-28 00:52:00,
2013-02-27 19:57:00,40.6,35.8,29.63,NW,310,0.0,0.0,83,0.00,,---,0.83,VWS V14.00,2013-02-28 00:57:00,
2013-02-27 20:02:00,40.1,35.7,29.63,NW,310,0.0,0.0,84,0.00,,---,0.83,VWS V14.00,2013-02-28 01:02:00,
2013-02-27 20:07:00,39.7,35.3,29.63,NW,310,0.0,0.0,84,0.00,,---,0.83,VWS V14.00,2013-02-28 01:07:00,
2013-02-27 20:12:00,39.4,35.6,29.63,NW,310,0.0,4.0,86,0.00,,---,0.83,VWS V14.00,2013-02-28 01:12:00,
2013-02-27 20:17:00,39.2,35.7,29.64,NW,310,0.0,4.0,87,0.00,,---,0.83,VWS V14.00,2013-02-28 01:17:00,
2013-02-27 20:22:00,39.2,35.7,29.64,NW,310,0.0,4.0,87,0.00,,---,0.83,VWS V14.00,2013-02-28 01:22:00,
2013-02-27 20:27:00,39.3,35.8,29.64,NW,310,0.0,0.0,87,0.00,,---,0.83,VWS V14.00,2013-02-28 01:27:00,
2013-02-27 20:32:00,39.4,35.9,29.64,NW,310,0.0,0.0,87,0.00,,---,0.83,VWS V14.00,2013-02-28 01:32:00,
2013-02-27 20:37:00,39.3,35.8,29.64,NW,310,0.0,0.0,87,0.00,,---,0.83,VWS V14.00,2013-02-28 01:37:00,
2013-02-27 20:42:00,39.1,35.6,29.65,NW,314,4.0,5.0,87,0.00,,---,0.83,VWS V14.00,2013-02-28 01:42:00,
2013-02-27 20:47:00,39.1,35.6,29.65,NW,314,1.0,5.0,87,0.00,,---,0.83,VWS V14.00,2013-02-28 01:47:00,
2013-02-27 20:52:00,39.2,35.7,29.65,NW,314,0.0,5.0,87,0.00,,---,0.83,VWS V14.00,2013-02-28 01:52:00,
2013-02-27 20:57:00,39.4,35.9,29.64,NW,314,0.0,0.0,87,0.00,,---,0.83,VWS V14.00,2013-02-28 01:57:00,
2013-02-27 21:02:00,39.6,36.1,29.65,NW,314,0.0,0.0,87,0.00,,---,0.83,VWS V14.00,2013-02-28 02:02:00,
2013-02-27 21:07:00,39.8,36.2,29.65,NW,314,0.0,0.0,87,0.00,,---,0.83,VWS V14.00,2013-02-28 02:07:00,
2013-02-27 21:12:00,39.9,36.3,29.65,NW,314,0.0,0.0,87,0.00,,---,0.83,VWS V14.00,2013-02-28 02:12:00,
2013-02-27 21:17:00,40.0,36.2,29.65,NW,314,0.0,0.0,86,0.00,,---,0.83,VWS V14.00,2013-02-28 02:17:00,
2013-02-27 21:22:00,39.9,36.1,29.64,NW,314,0.0,0.0,86,0.00,,---,0.83,VWS V14.00,2013-02-28 02:22:00,
2013-02-27 21:27:00,39.8,36.0,29.65,NW,314,0.0,0.0,86,0.00,,---,0.83,VWS V14.00,2013-02-28 02:27:00,
2013-02-27 21:32:00,39.7,35.9,29.65,NW,314,0.0,0.0,86,0.00,,---,0.83,VWS V14.00,2013-02-28 02:32:00,
2013-02-27 21:37:00,39.6,36.1,29.65,NW,314,0.0,0.0,87,0.00,,---,0.83,VWS V14.00,2013-02-28 02:37:00,
2013-02-27 21:42:00,39.4,35.6,29.65,NW,314,0.0,0.0,86,0.00,,---,0.83,VWS V14.00,2013-02-28 02:42:00,
2013-02-27 21:47:00,39.1,35.6,29.65,NW,314,0.0,0.0,87,0.00,,---,0.83,VWS V14.00,2013-02-28 02:47:00,
2013-02-27 21:52:00,38.9,35.4,29.65,NW,314,0.0,0.0,87,0.00,,---,0.83,VWS V14.00,2013-02-28 02:52:00,
2013-02-27 21:57:00,38.6,35.1,29.65,NW,314,0.0,0.0,87,0.00,,---,0.83,VWS V14.00,2013-02-28 02:57:00,
2013-02-27 22:02:00,38.4,34.9,29.64,NW,314,0.0,0.0,87,0.00,,---,0.83,VWS V14.00,2013-02-28 03:02:00,
2013-02-27 22:07:00,38.2,35.0,29.64,NW,314,0.0,0.0,88,0.00,,---,0.83,VWS V14.00,2013-02-28 03:07:00,
2013-02-27 22:12:00,38.0,34.8,29.64,NW,314,0.0,0.0,88,0.00,,---,0.83,VWS V14.00,2013-02-28 03:12:00,
2013-02-27 22:17:00,37.7,34.5,29.64,NW,314,0.0,0.0,88,0.00,,---,0.83,VWS V14.00,2013-02-28 03:17:00,
2013-02-27 22:22:00,37.5,34.3,29.64,NW,314,0.0,0.0,88,0.00,,---,0.83,VWS V14.00,2013-02-28 03:22:00,
2013-02-27 22:27:00,37.2,34.0,29.64,NW,314,0.0,0.0,88,0.00,,---,0.83,VWS V14.00,2013-02-28 03:27:00,
2013-02-27 22:32:00,37.0,33.8,29.64,NW,314,0.0,0.0,88,0.00,,---,0.83,VWS V14.00,2013-02-28 03:32:00,
2013-02-27 22:38:00,36.8,33.9,29.64,NW,314,0.0,0.0,89,0.00,,---,0.83,VWS V14.00,2013-02-28 03:38:00,
2013-02-27 22:43:00,36.6,34.0,29.64,NW,314,0.0,0.0,90,0.00,,---,0.83,VWS V14.00,2013-02-28 03:43:00,
2013-02-27 22:48:00,36.8,34.2,29.64,NW,314,0.0,0.0,90,0.00,,---,0.83,VWS V14.00,2013-02-28 03:48:00,
2013-02-27 22:53:00,36.9,34.2,29.63,NW,314,0.0,0.0,90,0.00,,---,0.83,VWS V14.00,2013-02-28 03:53:00,
2013-02-27 22:58:00,36.8,34.2,29.63,NW,314,0.0,0.0,90,0.00,,---,0.83,VWS V14.00,2013-02-28 03:58:00,
2013-02-27 23:03:00,36.7,34.0,29.63,NW,314,0.0,0.0,90,0.00,,---,0.83,VWS V14.00,2013-02-28 04:03:00,
2013-02-27 23:08:00,36.7,34.0,29.63,NW,314,0.0,0.0,90,0.00,,---,0.83,VWS V14.00,2013-02-28 04:08:00,
2013-02-27 23:13:00,36.6,34.0,29.62,NW,314,1.0,2.0,90,0.00,,---,0.83,VWS V14.00,2013-02-28 04:13:00,
2013-02-27 23:18:00,36.5,33.8,29.62,NW,314,0.0,2.0,90,0.00,,---,0.83,VWS V14.00,2013-02-28 04:18:00,
2013-02-27 23:23:00,36.6,34.2,29.61,NW,314,0.0,2.0,91,0.00,,---,0.83,VWS V14.00,2013-02-28 04:23:00,
2013-02-27 23:28:00,36.8,34.4,29.60,NW,314,0.0,0.0,91,0.00,,---,0.83,VWS V14.00,2013-02-28 04:28:00,
2013-02-27 23:33:00,37.1,35.0,29.61,NW,314,4.0,4.0,92,0.00,,---,0.83,VWS V14.00,2013-02-28 04:33:00,
2013-02-27 23:38:00,37.4,35.3,29.62,NW,314,4.0,5.0,92,0.00,,---,0.83,VWS V14.00,2013-02-28 04:38:00,
2013-02-27 23:43:00,37.7,35.3,29.62,South,173,5.0,5.0,91,0.00,,---,0.83,VWS V14.00,2013-02-28 04:43:00,
2013-02-27 23:48:00,38.0,35.6,29.62,South,178,0.0,5.0,91,0.00,,---,0.83,VWS V14.00,2013-02-28 04:48:00,
2013-02-27 23:53:00,38.2,35.8,29.62,South,178,0.0,5.0,91,0.00,,---,0.83,VWS V14.00,2013-02-28 04:53:00,
2013-02-27 23:58:00,38.4,36.0,29.62,South,183,0.0,0.0,91,0.00,,---,0.00,VWS V14.00,2013-02-28 04:58:00,